Regional Weather Roundup
Issued by NWS

Home | Current Version | Previous Version | Graphics & Text | Print | Product List | Glossary On
Versions: 1 2 3 4 5 6 7 8 9 10 11 12 13 14 15 16 17 18 19 20 21 22 23 24 25 26 27 28 29 30 31 32 33 34 35 36 37 38 39 40 41 42 43 44 45 46 47 48 49 50
467
ASUS44 KJAN 032010
RWRMS

MISSISSIPPI HOURLY WEATHER ROUNDUP
NATIONAL WEATHER SERVICE JACKSON MS
200 PM CST TUE MAR 03 2015

NOTE: "FAIR: INDICATES FEW OR NO CLOUDS BELOW 12,000 FEET WITH NO
SIGNIFICANT WEATHER AND/OR OBSTRUCTIONS TO VISIBILITY.

MSZ001>002-007>008-010>013-018>021-025>028-034>036-032100-
NORTHWEST MISSISSIPPI

CITY           SKY/WX    TMP DP  RH WIND       PRES   REMARKS
CLARKSDALE     CLOUDY    54  54 100 SW6       29.99F VSB 1/4
CLEVELAND      FOG       56  56 100 S9        29.98F VSB 1/2
GREENWOOD      CLOUDY    73  64  73 SW15      29.98F
GREENVILLE     LGT RAIN  60  58  92 S10       29.97F FOG
OLIVE BRANCH   LGT RAIN  55  55 100 SW9       29.97F FOG
OXFORD         CLOUDY    59  59 100 S3        29.99F FOG
TUNICA         CLOUDY    52  52 100 S6        29.98F FOG
$$

MSZ003>006-009-014>017-022>024-029>033-037>039-032100-
NORTHEAST MISSISSIPPI

CITY           SKY/WX    TMP DP  RH WIND       PRES   REMARKS
COLUMBUS AFB   PTSUNNY   68  66  94 S6        30.01F
CORINTH        CLOUDY    59  55  88 S7        30.00F
GOLDN TRIANGLE PTSUNNY   72  66  83 S12       30.02F
STARKVILLE     FAIR      70  64  83 S5        30.02F
TUPELO         CLOUDY    60  57  89 S7        30.01F
$$

MSZ040-058-032100-
CENTRAL MISSISSIPPI

CITY           SKY/WX    TMP DP  RH WIND       PRES   REMARKS
JACKSON INTL   LGT RAIN  75  65  70 S8        30.00F
JACKSON HAWKNS CLOUDY    73  65  75 SE10      30.01F
MERIDIAN KEY   CLOUDY    73  65  75 S15       30.05F
MERIDIAN NAS   CLOUDY    73  64  73 S9        30.05F
VICKSBURG      PTSUNNY   75  66  73 S12       29.99F
$$

MSZ059>079-032100-
SOUTH MISSISSIPPI

CITY           SKY/WX    TMP DP  RH WIND       PRES   REMARKS
BROOKHAVEN     LGT RAIN  73  73 100 S6        30.04F
HATTIESBURG    CLOUDY    76  65  68 S15       30.05F
MCCOMB         CLOUDY    73  66  78 S9        30.02F
NATCHEZ        CLOUDY    73  68  83 S10       30.00F
PINE BELT      PTSUNNY   77  57  50 S12       30.05F
$$

MSZ080>082-032100-
COASTAL MISSISSIPPI

CITY           SKY/WX    TMP DP  RH WIND       PRES   REMARKS
BAY ST LOUIS   CLOUDY    72  63  73 SE12G21   30.08F
BILOXI         PTSUNNY   72  66  83 SE15      30.09F
PASCAGOULA     CLOUDY    70  64  81 SE15      30.10F
GULFPORT       CLOUDY    68  64  87 SE16      30.08F
$$



USA.gov is the U.S. government's official web portal to all federal, state and local government web resources and services.